Weather in Nazarovo

Russia / Yaroslavl Oblast     58°02′55″N   38°57′32″E
temp.,
°C
wind,
m/s
gust,
m/s
humid.,
%
clouds,
%
prec.,
mm/h
press.,
hPa
HPBL,
m
21 january, thu
thu2100:00−11w389596 0.3 1017264
03:00−15wsw369791 0.3 1017119
06:00−15sw3793100 0.0 1017178
09:00−17sw2594100 0.0 1015115
12:00−14ssw2491100 0.0 1015218
15:00−12sse2395100 0.2 1013242
18:00−13se2296100 0.1 101328
21:00−13se1296100 0.1 101421
22 january, fri
fri2200:00−14se2296100 0.0 101328
03:00−13se2596100 0.0 1014157
06:00−12se3795100 0.4 1012286
09:00−11se4995100 1.6 1012323
12:00−9se4895100 0.7 1011295
15:00−7se3695100 0.8 1010265
18:00−5se4696100 0.0 1009206
21:00−1sse3797100 0.1 1009305
23 january, sat
sat2300:000sse3898100 0.0 1008372
03:00+1s38100100 0.3 1007328
06:00+1ssw3799100 0.3 1006262
09:00+1s2699100 0.3 1007217
12:00+1s2410099 0.1 1007138
15:00+1ssw3810099 0.3 1007236
18:00+1ssw3999100 0.1 1007289
21:00+1ssw41099100 0.6 1008408
24 january, sun
sun2400:00+1sw3899100 0.1 1008285
03:00+1ssw2698100 0.1 1009149
06:00+1s3699100 0.1 1009183
09:00+1s2799100 0.1 1010217
12:00+1s39100100 0.0 1011351
15:00+1s38100100 0.0 1010267
18:00+1sse41099100 0.0 1010295
21:00+1sse41098100 0.0 1010338
25 january, mon
mon2500:00+1sse41198100 0.0 1009406
03:00+1sse51299100 0.1 1009390
06:00+1sse5138899 0.0 1008532
09:000sse51291100 0.0 1009502
12:00+1sse51195100 0.0 1009523
15:00+1s41198100 0.0 1010481
18:00+1s41098100 0.0 1011329
21:00+1s399999 0.0 1012354